RH
10 10 8 6 4 3 3 7 13 16 46 43 71 66 63 55 57 60 76 84 69 61 62 66 58 58 52 56 66 67 65 67 85 79 41 46 77 68 71 60 54 49 48 50 49 48 42 37 31
10 10 8 5 3 3 3 9 12 17 22 59 78 64 76 62 55 63 59 65 74 63 72 68 59 59 60 61 65 69 66 57 59 44 29 27 36 63 61 57 55 52 48 44 43 40 39 36 29
10 10 8 5 4 4 3 8 12 16 20 26 39 59 90 67 61 79 74 64 82 78 65 76 71 61 64 67 70 67 57 64 61 49 32 28 27 27 29 32 31 44 49 41 38 35 33 31 28
9 8 8 7 6 4 4 6 10 13 17 21 36 49 76 94 74 77 79 77 75 95 90 74 75 66 56 54 60 61 57 63 77 52 39 33 26 30 26 25 26 29 32 34 36 33 31 28 28
7 7 7 6 7 5 4 5 8 9 12 18 25 58 60 91 77 75 69 80 81 86 95 98 100 87 67 56 54 58 64 64 63 63 51 36 29 29 29 28 27 26 30 33 32 30 29 28 28
5 6 6 6 6 5 3 4 5 6 8 12 22 32 76 85 80 72 62 78 75 76 89 96 97 95 84 72 64 63 66 58 54 65 64 48 33 32 29 30 28 27 27 25 26 27 30 32 31
4 4 4 4 4 4 3 3 3 5 6 8 18 30 92 87 64 76 62 63 75 71 82 96 100 100 96 85 86 90 92 70 67 68 57 56 42 48 35 35 33 31 29 26 26 26 28 29 30
3 2 2 2 3 4 4 3 4 4 4 7 14 28 76 100 79 55 74 57 68 60 73 88 99 100 100 100 100 100 100 99 79 65 57 59 63 61 48 40 39 40 44 39 31 29 28 28 28
2 2 2 2 2 5 3 3 4 5 4 5 8 24 61 99 83 98 63 85 67 76 73 87 90 95 100 100 100 100 100 97 86 80 66 66 68 65 51 42 40 44 49 52 47 48 46 45 44
2 2 1 1 1 2 2 3 4 5 4 4 9 18 31 96 91 44 60 100 88 76 85 100 100 99 100 100 100 100 94 97 88 93 77 73 70 65 58 51 48 49 55 52 51 48 47 49 49
1 1 1 1 1 1 2 3 4 4 5 4 8 18 24 31 70 68 100 88 100 94 94 100 100 100 100 96 100 100 98 87 88 80 90 82 69 66 59 57 56 62 59 54 59 60 56 58 57
1 1 1 1 1 1 2 3 3 4 5 5 9 13 28 27 70 100 100 75 100 88 100 100 100 100 100 100 96 96 100 100 86 89 100 93 82 77 70 69 62 61 63 64 64 72 66 66 66
1 1 1 1 1 2 2 4 3 5 6 7 8 14 53 42 39 56 96 98 100 92 100 100 100 96 83 84 88 70 98 100 88 94 100 100 100 100 92 78 77 76 75 80 87 95 84 84 87
1 1 1 1 2 2 3 4 5 7 9 10 10 14 47 76 71 63 89 82 96 100 100 100 100 86 99 92 77 89 100 100 100 100 100 100 100 100 100 100 100 100 99 100 100 94 90 90 90
1 1 1 1 2 3 4 5 6 11 10 14 11 18 36 63 83 75 82 80 100 100 100 100 100 100 99 47 56 100 100 100 100 100 100 100 100 100 100 100 100 100 100 91 88 93 96 88 87
1 1 1 2 2 3 4 9 12 15 12 12 11 32 38 87 70 91 50 65 93 100 100 100 99 92 71 56 29 39 45 58 100 100 100 100 100 100 100 99 99 100 100 100 100 100 100 87 87
1 1 2 2 3 4 6 14 16 28 20 27 14 31 42 70 80 100 81 60 74 100 100 100 97 83 63 64 56 45 44 53 61 74 100 100 100 99 100 100 98 100 100 96 100 100 100 95 100
1 1 2 2 4 5 8 12 26 52 20 22 22 35 45 44 66 99 100 97 100 100 100 100 100 100 84 67 70 70 71 78 70 81 96 97 100 99 100 100 100 100 100 100 100 100 100 99 100
1 2 2 3 5 9 13 16 28 52 41 21 28 28 44 30 66 94 100 100 100 100 100 100 100 100 100 100 100 100 100 100 100 98 100 100 100 100 100 100 100 100 100 100 100 100 100 87 80
1 2 3 4 6 12 17 23 35 80 41 25 27 29 53 35 46 71 100 100 100 100 100 100 100 95 100 100 100 100 100 100 100 100 100 100 100 100 100 100 100 100 97 99 98 100 100 100 100
2 2 3 6 8 14 18 34 57 95 66 34 39 30 59 43 47 56 96 100 100 100 100 100 100 100 90 100 100 100 100 100 100 100 100 99 99 100 100 100 100 100 94 100 100 100 100 100 100
3 3 4 5 8 12 17 38 96 91 100 41 41 35 52 58 39 43 83 100 99 100 100 100 79 90 98 100 97 100 100 100 100 100 100 100 100 100 92 75 72 84 95 100 100 100 100 100 100
3 4 5 6 7 10 11 37 64 87 82 62 48 46 50 48 50 42 74 96 99 100 100 96 100 100 100 94 100 100 100 99 100 100 100 81 100 100 95 86 94 100 100 100 100 100 100 100 78
4 5 5 6 7 9 18 33 60 65 100 97 62 44 57 55 58 48 52 100 100 96 100 100 100 100 100 100 99 100 100 100 100 100 100 100 97 74 100 100 100 100 100 100 100 100 99 79 76
4 5 5 6 9 9 15 29 52 74 100 100 99 97 62 69 51 77 58 55 100 100 85 100 100 100 100 100 100 100 100 100 100 100 100 100 100 100 100 100 100 100 94 100 90 98 100 99 95
5 6 5 7 8 12 11 19 34 84 100 100 100 100 70 67 63 61 91 75 67 100 100 100 100 100 100 100 100 100 100 100 100 100 100 100 100 100 100 100 100 100 92 99 100 100 100 100 100
6 6 6 8 10 12 14 21 34 48 97 100 100 100 90 56 83 87 71 68 78 100 100 100 79 86 94 100 88 99 94 100 100 100 100 100 100 100 100 100 100 100 100 100 100 100 100 100 100
6 8 7 8 10 12 15 28 52 49 79 100 100 100 100 85 48 95 100 100 82 96 100 100 100 82 65 95 99 100 100 96 97 96 100 100 100 100 100 100 100 99 97 100 100 100 100 98 86
8 8 9 11 12 14 20 32 52 73 72 86 100 100 100 100 85 58 76 96 90 92 96 90 100 99 90 100 89 84 100 100 98 98 74 90 100 100 100 100 100 90 100 100 100 94 89 70 69
7 10 11 13 14 14 25 43 55 69 96 86 100 100 100 100 96 75 66 79 91 91 86 72 69 100 100 100 100 87 99 100 100 94 100 100 100 100 100 96 83 74 68 61 56 56 67 73 80
Wind_Speed
67 66 66 67 67 62 65 72 74 79 87 81 84 79 74 73 67 61 60 58 54 55 54 53 52 50 49 49 46 45 43 38 37 33 31 29 31 31 29 29 29 29 28 28 28 28 28 27 28
66 64 68 69 69 69 59 67 71 79 85 90 88 82 78 75 67 63 61 59 57 59 56 56 53 51 50 48 48 46 43 38 37 34 30 29 32 33 33 31 30 33 33 31 30 31 30 30 29
68 66 68 71 70 62 61 69 66 84 88 92 88 84 82 74 71 67 66 62 59 59 60 58 56 53 51 48 48 47 44 41 38 33 30 30 30 33 33 33 32 31 33 33 32 31 31 31 30
70 71 73 71 72 60 64 75 72 89 94 93 91 87 84 83 77 74 70 66 63 61 59 59 58 55 53 51 49 47 45 41 34 31 32 31 30 29 31 30 31 32 32 32 33 33 32 31 30
74 72 74 74 71 56 67 74 78 89 95 95 94 94 86 87 80 78 75 72 68 66 62 58 57 55 54 51 50 49 46 43 39 37 36 32 31 30 30 31 31 31 32 34 35 34 32 31 31
80 78 77 75 70 58 69 76 82 89 96 97 94 95 93 95 90 83 81 78 72 69 65 60 58 55 54 52 49 47 46 43 41 40 38 36 34 32 32 31 32 30 30 31 32 31 31 31 32
80 83 77 77 75 68 66 72 83 86 95 97 94 93 95 100 97 91 84 82 76 71 67 63 57 53 53 52 48 45 44 42 39 35 35 37 35 34 33 32 28 26 24 24 26 24 25 28 30
79 85 80 76 74 65 66 71 74 88 96 100 100 97 95 97 95 85 86 84 78 74 69 65 63 57 52 54 51 50 47 45 44 42 37 37 37 35 32 28 26 26 25 25 25 25 24 26 27
74 77 80 79 76 64 69 69 76 85 99 99 103 100 98 93 88 79 87 82 81 75 70 67 65 62 60 55 54 54 54 53 49 46 41 39 39 37 32 30 29 28 28 27 27 28 28 28 29
68 73 82 87 80 78 75 73 82 85 97 99 102 103 104 102 94 89 71 80 82 79 75 71 67 65 62 60 58 56 54 52 48 47 45 44 42 38 35 33 33 32 31 31 31 31 31 32 33
64 60 77 88 86 83 76 77 83 86 94 99 103 105 107 104 94 78 57 87 86 83 78 73 71 69 67 64 59 58 57 51 47 44 39 40 40 39 38 36 36 35 35 36 35 35 34 35 35
64 65 65 77 85 88 80 82 85 90 93 99 106 109 105 102 99 95 104 83 62 81 80 75 72 67 67 66 64 62 57 57 51 46 38 40 41 42 42 40 40 40 40 41 40 39 39 38 39
66 65 64 72 75 78 82 89 89 91 96 104 106 108 88 98 95 98 96 93 86 79 77 72 72 63 64 66 70 66 62 57 52 48 45 46 43 44 47 46 45 45 46 44 41 42 42 42 41
61 61 63 64 64 70 80 90 91 95 99 107 110 110 94 96 90 97 99 99 90 81 74 67 58 62 65 63 60 59 58 54 53 50 47 46 47 48 46 47 47 48 47 46 46 48 48 47 46
55 53 54 56 57 65 79 86 98 101 107 111 113 113 101 93 85 87 97 98 92 82 72 68 61 65 64 70 62 56 56 58 56 55 55 52 51 50 52 51 49 47 48 51 52 51 51 52 51
46 44 46 49 54 61 71 88 89 92 102 108 113 109 106 92 75 77 94 91 94 85 79 79 73 68 69 68 73 72 68 66 62 59 61 59 58 58 56 56 55 55 52 53 54 54 55 55 55
36 36 40 43 52 60 75 95 98 100 107 106 113 107 104 97 82 68 69 71 82 80 87 80 81 85 85 77 76 78 75 69 71 71 66 63 61 61 61 62 60 60 63 64 61 60 62 60 58
29 34 36 44 54 63 79 91 97 92 103 108 111 106 110 97 91 77 75 72 79 78 79 86 84 87 87 80 78 76 78 81 75 73 67 66 68 68 69 67 66 67 67 64 64 65 69 68 64
26 29 33 46 57 69 83 90 96 92 102 105 107 107 106 103 85 82 80 82 70 73 68 70 74 83 84 80 80 79 82 80 77 77 77 78 75 75 74 74 73 73 72 72 73 70 71 73 74
26 29 37 48 60 73 82 86 91 84 92 101 107 105 102 103 104 98 86 88 81 68 67 63 55 64 64 64 70 76 74 73 78 79 77 78 76 76 81 84 84 86 84 79 74 75 71 72 73
25 32 39 52 63 78 87 89 93 80 79 99 103 103 102 105 107 104 91 88 83 79 66 70 43 53 63 54 56 60 64 64 65 64 68 77 83 85 83 83 80 76 77 76 75 72 76 72 70
25 32 38 48 61 77 87 91 83 83 90 87 105 101 102 106 109 109 91 87 86 84 80 66 70 60 64 69 57 55 54 47 48 50 57 60 64 69 72 72 72 72 67 72 77 77 75 77 75
25 32 38 46 56 67 73 90 89 86 82 79 99 100 100 105 106 104 98 80 80 76 86 73 60 64 33 70 61 61 63 55 52 49 55 62 63 59 63 59 60 59 56 58 66 70 73 74 74
26 36 41 46 53 60 76 89 95 94 78 71 92 98 101 100 103 105 104 98 83 69 79 87 74 64 68 68 64 65 66 71 66 70 61 53 67 70 61 65 62 47 62 71 68 68 72 76 69
26 34 43 47 53 54 69 85 93 93 74 79 75 72 98 98 103 105 106 109 94 90 77 79 73 69 77 78 73 71 72 67 64 68 69 64 66 66 66 69 68 74 74 77 74 70 76 77 78
26 37 42 49 52 59 63 79 91 92 87 85 75 83 88 98 101 104 108 106 108 97 93 92 86 97 71 74 78 90 87 76 72 73 73 76 80 84 85 83 79 80 81 79 82 86 92 90 84
27 35 41 47 49 58 59 67 81 89 95 84 78 72 81 92 99 100 103 109 112 101 103 103 102 98 90 79 83 83 79 82 70 76 74 78 85 86 86 83 83 81 88 92 95 98 98 95 97
26 34 39 45 50 56 61 71 81 85 90 93 89 86 79 85 97 103 107 110 114 118 107 102 106 108 103 90 91 94 96 81 81 79 80 82 86 92 95 94 95 100 94 87 91 93 95 96 96
27 31 37 43 50 54 58 66 75 86 86 90 88 89 92 94 92 95 104 106 112 117 120 118 104 101 97 95 94 90 87 92 89 85 87 88 94 99 100 104 105 102 102 103 105 104 100 98 97
24 32 37 42 47 51 59 69 73 77 88 91 94 88 74 81 82 91 99 102 106 109 114 116 118 115 108 103 102 96 97 103 101 95 102 106 105 105 105 106 110 110 112 111 106 106 104 104 103
Wind_Direction
251 254 253 247 244 243 240 236 229 230 232 231 232 230 229 225 221 220 224 226 228 228 230 232 235 237 241 243 248 251 253 256 259 260 261 262 262 265 267 271 277 282 285 288 293 298 301 305 306
247 250 252 252 247 241 235 235 229 228 229 231 230 230 228 225 223 221 224 224 226 227 229 232 235 237 242 246 249 251 254 255 256 259 261 265 263 265 265 269 271 277 280 283 287 293 296 300 299
245 249 253 251 245 242 232 235 223 225 227 228 230 228 228 226 221 223 224 225 226 230 229 231 233 235 239 243 248 252 254 258 261 260 261 263 265 264 266 270 271 274 278 281 287 290 294 296 295
244 247 251 253 250 239 233 234 222 221 224 225 227 227 225 225 223 222 223 224 226 229 232 233 234 236 239 242 245 251 256 258 263 267 270 266 265 266 268 269 270 271 274 279 283 288 293 291 294
242 246 248 252 252 242 233 233 223 223 221 222 222 226 223 225 225 224 223 223 224 226 229 231 233 236 239 242 245 249 254 258 260 264 271 268 266 266 270 270 274 275 274 275 280 284 286 287 290
241 245 248 252 252 244 233 228 226 225 221 219 217 221 226 224 226 227 224 224 223 225 228 231 235 236 237 241 243 247 252 255 260 264 265 269 266 268 270 275 276 277 277 280 282 282 283 289 291
242 244 248 250 251 249 234 228 225 226 226 218 214 216 220 228 224 229 227 224 222 224 227 229 233 236 238 238 241 243 247 253 258 261 264 270 270 272 272 275 274 276 281 283 285 288 288 291 294
246 247 248 250 253 248 238 227 227 223 227 218 211 212 216 223 230 227 227 225 223 224 226 228 231 234 236 240 240 243 244 249 255 258 265 267 271 272 271 267 269 273 280 284 288 291 293 295 298
253 250 248 249 252 245 238 225 224 222 224 222 214 208 211 218 221 223 223 226 226 225 226 229 232 234 237 238 242 244 247 250 253 257 261 262 268 268 266 268 269 273 278 282 287 291 294 296 298
258 251 247 248 249 244 240 228 221 222 222 222 214 207 211 211 218 218 225 226 228 225 224 228 233 235 238 240 242 246 250 250 252 254 259 258 262 263 264 267 271 273 278 284 288 290 293 297 299
260 252 240 239 244 246 241 227 220 219 220 223 212 209 211 212 215 214 212 228 228 227 225 228 232 234 238 239 243 247 249 250 253 252 252 254 257 261 264 266 270 273 279 286 288 290 292 294 295
267 260 252 243 239 241 238 227 221 218 216 217 213 210 209 212 210 213 213 221 228 229 227 228 232 238 240 242 244 247 244 249 251 247 251 257 260 263 265 266 270 274 278 284 288 291 292 293 293
267 265 257 249 242 234 232 222 218 215 214 210 213 209 204 210 213 216 217 218 214 225 227 228 232 236 241 243 243 247 243 247 249 250 259 259 260 265 267 266 270 275 280 283 286 288 289 291 292
266 263 254 248 238 228 221 219 213 211 209 207 212 207 201 206 209 214 218 221 218 223 226 229 233 239 246 240 239 236 236 243 247 249 253 256 258 262 267 268 272 275 277 278 280 283 285 288 289
270 261 251 242 231 221 216 214 209 206 206 205 210 208 201 206 206 211 216 219 225 223 224 220 231 242 241 236 234 231 240 250 248 251 253 255 257 259 264 267 270 273 276 279 281 283 285 286 286
268 255 240 231 220 215 211 207 205 209 207 205 208 205 203 201 196 210 216 219 221 222 222 222 220 226 232 235 234 240 247 248 249 253 255 255 258 261 263 266 271 271 274 278 280 282 284 285 288
263 244 230 219 212 207 201 200 201 202 202 205 208 202 203 200 195 201 214 217 226 225 223 227 228 231 237 243 245 246 250 253 255 256 254 256 260 263 267 270 270 271 276 279 279 281 283 285 287
253 236 218 207 203 199 198 201 199 202 206 202 206 202 204 197 199 198 204 214 223 230 231 230 232 238 248 251 256 257 262 263 260 262 262 262 263 266 267 269 271 274 275 275 276 279 279 282 284
242 227 211 200 196 196 197 197 199 200 207 204 204 203 206 198 191 195 202 208 211 223 232 238 240 243 248 252 251 254 257 259 261 261 264 266 267 268 267 271 272 272 272 273 274 277 278 280 282
235 217 199 196 194 195 194 191 194 196 211 204 206 204 203 201 198 200 202 203 209 205 217 220 246 247 249 252 255 257 260 264 264 265 264 265 265 264 267 268 271 273 275 277 274 276 276 278 281
224 212 197 196 194 194 193 191 197 195 210 204 204 202 202 201 200 202 202 205 202 208 210 216 214 238 237 242 247 252 258 263 260 260 261 260 261 264 265 265 269 271 274 273 273 273 275 276 275
211 208 200 200 197 195 198 190 184 197 201 205 203 202 202 201 203 200 197 204 202 205 208 210 215 236 242 245 240 241 245 236 238 247 256 258 261 260 262 269 272 276 278 274 273 273 271 270 271
205 204 201 199 200 200 198 195 195 194 207 207 205 202 203 204 204 202 197 198 204 201 206 202 199 202 216 238 237 240 238 234 235 249 251 254 253 258 266 274 275 274 270 271 269 268 268 272 274
204 202 200 198 204 201 195 194 197 200 193 198 206 203 205 203 205 205 201 200 201 199 200 206 210 216 222 226 230 235 237 235 237 246 252 250 257 264 262 263 260 249 257 256 261 260 267 276 277
202 202 199 197 201 204 199 195 199 197 196 200 201 204 204 205 205 206 206 206 204 211 205 201 209 213 220 222 220 225 225 237 239 242 242 246 248 250 252 256 254 262 267 268 265 265 276 275 282
202 201 200 195 200 201 205 201 202 198 197 203 201 202 209 204 207 207 207 209 207 207 212 207 205 209 211 217 227 229 229 233 238 236 237 242 248 253 255 258 261 262 265 265 268 270 273 278 275
204 203 199 195 204 200 207 207 205 200 202 197 199 205 211 210 204 209 209 209 209 208 208 214 215 206 214 216 223 226 227 229 236 237 237 241 245 251 254 255 256 258 264 267 269 270 271 272 275
204 205 206 204 199 206 205 206 202 206 203 200 202 203 203 211 209 208 208 210 211 213 211 214 219 224 221 221 224 227 232 234 234 238 242 244 246 248 253 258 262 266 269 268 268 271 272 272 273
201 210 210 209 207 205 208 208 208 208 208 207 207 211 215 218 221 214 213 215 216 216 218 218 217 218 221 223 227 227 229 234 237 239 243 247 251 256 259 262 265 268 268 269 271 272 274 276 277
201 208 211 213 214 212 208 208 210 212 213 211 210 210 211 216 218 220 220 217 218 221 223 224 223 224 227 228 229 228 233 238 241 244 248 252 253 255 259 260 262 263 265 267 266 268 270 272 274